• Processing (Info)

  • MPEC 2022-Q53 : 2022 QE1

    The following Minor Planet Electronic Circular may be linked-to from your own Web pages, but must not otherwise be redistributed electronically.

    A form allowing access to any MPEC is at the bottom of this page.


    Read MPEC 2022-Q52 Read MPEC 2022-Q54


    M.P.E.C. 2022-Q53                               Issued 2022 August 22, 01:27 UT
    
         The Minor Planet Electronic Circulars contain information on unusual
             minor planets and routine data on comets.  They are published
        on behalf of Division F of the International Astronomical Union by the
              Minor Planet Center, Smithsonian Astrophysical Observatory,
                              Cambridge, MA 02138, U.S.A.
    
                 Prepared using the Tamkin Foundation Computer Network
    
                                  MPC@CFA.HARVARD.EDU
                URL https://www.minorplanetcenter.net/    ISSN 1523-6714
    
                                    2022 QE1                                 
    
    
    Observations:
         K22Q01E* C2022 08 21.37472520 30 14.220+01 29 46.00         16.46cVEQ053T05
         K22Q01E  C2022 08 21.37982020 29 07.344+01 33 46.44         16.51cVEQ053T05
         K22Q01E  C2022 08 21.38343620 28 20.342+01 36 34.88         16.78cVEQ053T05
         K22Q01E  C2022 08 21.41610020 21 36.540+02 00 43.74         16.82cVEQ053T05
         K22Q01E  C2022 08 21.49655420 07 28.958+02 52 25.72         16.61oVEQ053T08
         K22Q01E  C2022 08 21.49701120 07 24.725+02 52 41.12         16.77oVEQ053T08
         K22Q01E  C2022 08 21.49746620 07 20.618+02 52 55.78         16.68oVEQ053T08
         K22Q01E  C2022 08 21.49792120 07 16.313+02 53 11.83         16.88oVEQ053T08
         K22Q01E  C2022 08 21.49837620 07 12.235+02 53 26.52         16.77oVEQ053T08
         K22Q01E KC2022 08 21.79281919 39 29.42 +04 38 22.2          18.1 GVEQ053L18
         K22Q01E KC2022 08 21.79492119 39 18.26 +04 39 02.0          17.9 GVEQ053L18
         K22Q01E KC2022 08 21.79681619 39 08.20 +04 39 37.5          18.0 GVEQ053L18
         K22Q01E 1C2022 08 21.82092 19 37 28.37 +04 45 50.9          17.5 VXEQ053033
         K22Q01E 1C2022 08 21.82121 19 37 26.92 +04 45 56.3          17.8 VXEQ053033
         K22Q01E 1C2022 08 21.82149 19 37 25.47 +04 46 01.3          17.5 VXEQ053033
         K22Q01E 1C2022 08 21.82183 19 37 23.76 +04 46 07.4          17.5 VXEQ053033
         K22Q01E KC2022 08 21.83745 19 36 10.11 +04 54 13.0          17.4 GVEQ053104
         K22Q01E KC2022 08 21.83837219 36 07.76 +04 53 30.9          17.3 GVEQ053587
         K22Q01E KC2022 08 21.83949819 36 02.18 +04 53 50.1          17.0 GVEQ053587
         K22Q01E KC2022 08 21.84046919 35 57.34 +04 54 06.9          16.9 GVEQ053587
         K22Q01E KC2022 08 21.84732219 35 43.64 +04 57 05.8          17.4 GXEQ053958
         K22Q01E KC2022 08 21.84976 19 35 08.79 +04 57 43.6          17.5 GVEQ053104
         K22Q01E KC2022 08 21.85035719 35 28.68 +04 57 57.5          17.4 GXEQ053958
         K22Q01E KC2022 08 21.85347419 35 13.39 +04 58 50.3          17.9 GXEQ053958
         K22Q01E KC2022 08 21.86493219 34 13.116+04 58 11.50         17.9 GVEQ053Z80
         K22Q01E KC2022 08 21.86884119 33 54.794+04 59 16.62         18.6 GVEQ053Z80
         K22Q01E KC2022 08 21.87418019 33 31.634+05 00 45.90         17.8 GVEQ053J95
         K22Q01E KC2022 08 21.87543319 33 25.819+05 01 06.28         17.6 GVEQ053J95
         K22Q01E KC2022 08 21.87670919 33 19.939+05 01 26.80         17.6 GVEQ053J95
         K22Q01E KC2022 08 21.87795019 33 14.203+05 01 47.39         17.6 GVEQ053J95
         K22Q01E KC2022 08 21.90287 19 30 58.18 +05 11 57.5          17.8 GXEQ053L63
         K22Q01E KC2022 08 21.90558019 32 44.844+05 50 47.72         17.6 GXEQ053Y00
         K22Q01E KC2022 08 21.90805719 32 33.515+05 51 22.69         17.7 GXEQ053Y00
         K22Q01E KC2022 08 21.90900 19 30 30.72 +05 13 29.9          17.9 GXEQ053L63
         K22Q01E KC2022 08 21.91053219 32 22.286+05 51 56.94         17.5 GXEQ053Y00
         K22Q01E KC2022 08 21.91300719 32 11.033+05 52 31.61         17.8 GXEQ053Y00
         K22Q01E KC2022 08 21.93424519 28 38.19 +05 18 44.1          17.7 GXEQ053L01
         K22Q01E KC2022 08 21.93560619 28 32.52 +05 19 02.9          18.1 GXEQ053L01
         K22Q01E KC2022 08 21.93628519 28 29.66 +05 19 13.1          18.1 GXEQ053L01
    
    Observer details:
    033 Karl Schwarzschild Observatory, Tautenburg.  Observers S. Melnikov, C.
        Hoegner, U. Laux, F. Ludwig, B. Stecklum.  Measurer B. Stecklum.  1.34-m
        f/3 Schmidt + CCD.
    104 San Marcello Pistoiese.  Observers P. Bacci, M. Maestripieri.  Measurers
        P. Bacci, L. Tesi, G. Fagioli.  0.60-m f/4.0 reflector + CCD.
    587 Sormano.  Observers A. Carcano, E. Valli, G. Ventre.  Measurer P. Sicoli.
        0.5-m f/6.8 reflector + CCD.
    958 Observatoire de Dax.  Observers P. Dupouy, J. B. de Vanssay.  Measurer P.
        Dupouy.  0.43-m f/2.7 Reflector + CCD.
    J95 Great Shefford.  Observer P. Birtwhistle.  0.41-m f/6.3 Schmidt-Cassegrain
        + CCD.
    L01 Visnjan Observatory, Tican.  Observers K. Korlevic, P. Dusevic, I. Paleka,
        I. Perovic, M. Markovic, E. Pettarin, V. Srdic.  Measurer E. Pettarin.
        1.0-m f/2.9 reflector + CCD.
    L18 QOS Observatory, Zalistci.  Observers Y. V. Tanasiychuk, B. O. Basiev.
        Measurer A. M. Kozhukhov.  0.50-m f/3.8 reflector + CCD.
    L63 HOB Observatory, Capraia Fiorentina.  Observer M. Iozzi.  0.2m f/6.75
        Schmidt-Cassegrain + CCD.
    T05 ATLAS-HKO, Haleakala.  Observers L. Denneau, R. Siverd, J. Tonry, H.
        Weiland.  Measurers L. Denneau, N. Erasmus, A. Fitzsimmons, A. Lawrence,
        J. Robinson, R. Siverd, J. Tonry, H. Weiland.  0.5-m Reflector + CCD.
    T08 ATLAS-MLO, Mauna Loa.  Observers L. Denneau, R. Siverd, J. Tonry, H.
        Weiland.  Measurers L. Denneau, N. Erasmus, A. Fitzsimmons, A. Lawrence,
        J. Robinson, R. Siverd, J. Tonry, H. Weiland.  0.5-m Reflector + CCD.
    Y00 SONEAR Observatory, Oliveira.  Observer C. Jacques.  0.45-m f/2.9
        reflector + CCD.
    Z80 Northolt Branch Observatory.  Observer G. Wells.  Measurers G. Wells, D.
        Bamberger.  0.25-m f/8.0 Ritchey-Chretien + CCD.
    
    Orbital elements:
    2022 QE1                                                 Earth MOID = 0.0010 AU
    Epoch 2022 Aug. 9.0 TT = JDT 2459800.5                  Veres                   
    M 128.03101              (2000.0)            P               Q                  
    n   1.29825530     Peri.  202.92906     -0.98515397     -0.15919248             
    a   0.8322031      Node   327.70355     +0.17016500     -0.85600190             
    e   0.2493915      Incl.    6.90770     +0.02270508     -0.49185211             
    P   0.76           H   28.39          G   0.15           U   6                  
    Residuals in seconds of arc
    220821 T05  0.0   0.2+    220821 033  0.3+  0.0     220821 J95  0.1-  0.1+
    220821 T05  0.7+  0.2-    220821 033  0.2-  0.0     220821 J95  0.2-  0.0
    220821 T05  0.0   0.5-    220821 033  0.1-  0.1-    220821 J95  0.2+  0.2-
    220821 T05  1.3-  0.3+    220821 104  1.1-  0.4+    220821 J95  0.2+  0.2+
    220821 T08  0.4-  0.2+    220821 587  0.4-  0.2+    220821 L63  1.2+  0.9-
    220821 T08  0.6-  0.3+    220821 587  0.2+  0.1-    220821 Y00  0.4-  0.2+
    220821 T08  0.7+  0.2-    220821 587  0.2+  0.1-    220821 Y00  1.0-  0.3+
    220821 T08  1.1-  0.6+    220821 958  0.1+  0.0     220821 L63  0.0   0.3+
    220821 T08  0.5+  0.1+    220821 104 (1.5-  0.4+)   220821 Y00  0.6-  0.1-
    220821 L18  0.6-  0.3-    220821 958  0.0   0.2-    220821 Y00  0.9-  0.1+
    220821 L18  0.3+  0.3-    220821 958  0.1-  0.4-    220821 L01  0.5-  0.1-
    220821 L18  0.7+  0.6-    220821 Z80  0.2+  0.2-    220821 L01  0.3-  0.3-
    220821 033  0.0   0.1-    220821 Z80  0.8+  0.1+    220821 L01  0.7-  0.5+
    
    Ephemeris:
    2022 QE1                 a,e,i = 0.83, 0.25, 7                   q = 0.6247
    Date    TT    R. A. (2000) Decl.     Delta      r    Elong.  Phase     V
    2022 07 23    06 51 03.5 -06 27 35   0.1026  0.9313    32.7   143.9    30.7
    ...
    2022 08 07    06 39 33.6 -08 20 21   0.04826 0.9801    44.1   134.0    27.9
    ...
    2022 08 15    06 28 34.5 -09 05 55   0.02041 1.0005    52.2   126.9    25.4
    ...
    2022 08 21    22 36 51.7 -06 17 10   0.0013721.0131   169.0    11.0    14.8
    2022 08 22    19 25 41.9 +05 55 19   0.0043121.0147   137.0    42.8    18.3
    2022 08 23    18 55 06.9 +07 41 07   0.0077341.0162   128.6    51.1    19.8
    ...
    2022 08 29    18 28 11.0 +09 03 45   0.02856 1.0235   117.3    61.3    22.9
    ...
    2022 09 06    18 25 52.1 +09 08 55   0.05615 1.0291   110.5    66.6    24.5
    ...
    2022 09 21    18 30 49.6 +08 58 59   0.1057  1.0271    99.6    74.6    26.2
    
    M. P. C. Staff               (C) Copyright 2022 MPC           M.P.E.C. 2022-Q53
    


    Read MPEC 2022-Q52 Read MPEC 2022-Q54


    MPEC number:

    Enter an MPEC number in one of the following forms:

    • 1997-B01 (the full form)
    • J97B01 (the packed version of the full form)
    • B01 (the abbreviated form)